Location: Unspecified
(41.1637°N, 24.2901°E)
Time: 17:00:33
(UTC+02:00)

ISS - Visible Passes

Search period start: 24 September 2018 00:00
Search period end: 04 October 2018 00:00
Orbit: 403 x 409 km, 51.6° (Epoch: 25 September)

Date Brightness Start Highest point End Pass type
(mag) Time Alt. Az. Time Alt. Az. Time Alt. Az.
24 Sep -3.5 18:43:00 10° SW 18:46:11 47° SE 18:49:23 10° ENE visible
24 Sep -1.9 20:19:57 10° W 20:22:50 26° NNW 20:22:57 26° NNW visible
25 Sep -2.6 19:27:41 10° W 19:30:50 40° NNW 19:33:23 14° NE visible
25 Sep -0.2 21:06:00 10° NW 21:06:05 10° NW 21:06:05 10° NW visible
26 Sep -1.4 20:13:31 10° WNW 20:15:52 18° NNW 20:16:23 17° N visible
27 Sep -1.7 19:21:02 10° WNW 19:23:45 23° NNW 19:26:29 10° NE visible
28 Sep -1.2 20:07:04 10° NW 20:08:57 14° N 20:09:24 14° N visible
29 Sep -1.3 19:14:33 10° NW 19:16:46 16° NNW 19:18:58 10° NNE visible
30 Sep -1.2 20:00:19 10° NNW 20:02:02 13° N 20:02:12 13° N visible
01 Oct -1.2 19:08:00 10° NW 19:09:47 14° N 19:11:36 10° NNE visible
02 Oct -1.4 19:53:03 10° NNW 19:54:52 15° N 19:54:52 15° N visible
03 Oct -1.3 19:01:02 10° NNW 19:02:48 14° N 19:04:34 10° NE visible
03 Oct -0.5 20:37:16 10° NW 20:37:31 11° NW 20:37:31 11° NW visible
